Vorticity
6 6 6 7 8 10 12 13 12 10 8 7 6 7 8 9 10 9 9 8 7 7 6 6 6 6 6 5 5 6 6 6 7 7 8 8 8 8 7 6 5 5 5 5 6 6 6 5 5 5 4 4 3 2 1 1 1 2 3 5 5 6 6 5 4 3 2 2 2
7 7 6 6 8 10 11 12 12 10 9 8 7 7 8 9 9 9 9 8 8 7 6 6 6 6 6 6 6 6 6 6 6 7 7 8 8 8 7 6 5 5 5 5 6 6 5 5 4 4 4 3 3 2 1 2 2 2 3 5 6 6 6 5 4 2 2 2 2
8 7 7 7 7 9 10 12 12 11 10 9 8 7 7 8 9 9 9 8 7 7 6 6 6 6 6 6 5 5 6 6 6 6 6 7 7 7 7 6 4 4 4 5 5 5 5 4 4 4 4 4 4 3 3 2 2 3 4 5 6 6 6 4 3 2 2 3 4
9 8 8 7 7 8 9 11 12 12 11 10 8 7 7 7 8 8 8 8 7 7 7 7 7 7 6 6 5 5 5 5 6 6 6 7 7 7 7 6 5 4 4 5 5 5 4 4 4 4 5 5 5 4 3 1 1 2 4 6 6 6 5 3 2 2 3 4 4
10 9 8 8 8 8 9 10 11 12 11 11 9 8 7 7 7 8 8 8 8 8 8 7 7 7 6 6 5 5 4 5 5 5 6 6 7 7 6 6 5 5 4 5 5 5 5 5 6 6 6 6 4 1 -1 -2 0 4 6 7 7 5 4 2 2 3 4 4 5
10 9 8 8 8 8 8 9 10 11 12 12 11 10 8 8 8 8 9 9 9 8 8 7 7 7 6 6 6 5 4 4 4 5 5 6 6 6 6 6 6 6 6 6 6 6 7 8 8 7 6 3 -1 -4 -4 -2 4 8 9 7 6 4 3 2 2 3 4 5 4
11 10 9 9 9 9 9 9 10 11 12 13 12 12 10 9 9 9 9 9 8 8 8 7 7 7 7 6 6 6 5 4 4 4 5 5 6 6 6 6 6 6 6 7 7 7 8 9 7 5 1 -4 -8 -7 -3 5 11 11 9 7 5 3 2 2 3 4 5 4 3
12 10 10 9 9 10 10 10 11 12 12 13 14 13 12 12 11 10 9 9 8 8 8 7 7 7 7 7 6 6 5 5 4 4 4 4 5 6 6 7 7 7 7 7 7 8 8 7 4 0 -5 -11 -10 -4 5 14 14 12 8 7 4 3 2 2 4 4 4 3 2
12 11 10 10 10 10 11 12 12 13 13 14 15 14 13 13 11 10 10 9 9 8 8 8 8 8 7 7 7 6 6 5 5 4 4 5 5 6 7 7 7 7 7 7 8 8 7 5 1 -6 -11 -14 -5 6 14 17 13 10 7 6 3 2 2 3 4 4 3 2 1
13 12 10 10 10 11 12 13 13 14 14 14 14 14 13 12 11 10 10 9 8 8 8 8 8 8 8 8 7 7 6 6 6 5 5 6 6 7 7 7 6 7 7 8 9 8 6 2 -5 -11 -13 -8 5 13 15 13 10 8 7 5 2 1 1 3 3 3 2 1 1
14 12 11 11 11 12 13 13 14 14 14 14 13 12 12 11 11 10 10 9 9 9 9 9 9 8 8 8 8 7 7 6 6 6 6 6 7 7 6 6 7 8 9 10 10 8 4 -3 -11 -14 -10 2 10 12 11 8 8 8 6 4 2 1 1 2 2 2 1 1 1
14 13 12 11 12 12 13 13 13 13 13 13 13 12 12 12 12 11 11 11 11 11 10 10 10 9 9 9 8 8 7 7 6 6 6 5 5 6 6 8 10 11 12 12 9 4 -3 -11 -14 -10 -2 7 9 9 8 8 9 8 6 3 1 1 1 1 2 1 1 1 1
14 13 12 12 12 12 13 13 13 14 14 14 14 14 14 14 14 13 13 14 13 13 12 12 11 11 10 10 9 8 7 6 6 5 5 5 7 8 11 13 14 13 12 8 2 -5 -11 -15 -10 -3 5 9 9 9 10 10 10 8 5 2 1 1 1 1 1 1 1 1 1
14 13 13 12 12 12 12 13 13 13 14 14 15 15 15 15 16 16 16 17 16 15 15 14 13 12 11 10 10 8 7 6 6 7 8 9 11 13 13 13 10 7 2 -2 -8 -11 -11 -8 0 6 10 11 11 11 12 12 10 7 4 2 1 1 2 2 1 1 0 1 1
13 12 12 12 12 12 12 13 13 14 14 14 15 15 16 16 17 18 18 19 18 18 17 16 15 14 13 12 11 10 9 9 9 10 11 11 10 8 5 1 -3 -6 -8 -9 -9 -5 -1 5 9 12 13 13 13 13 12 12 9 7 4 3 2 2 2 2 1 1 1 1 2
12 12 12 13 13 13 14 14 15 15 15 15 15 15 16 16 17 18 18 19 19 19 18 18 16 14 13 12 10 10 9 9 8 8 7 4 0 -4 -7 -10 -10 -9 -6 -3 1 6 10 13 14 14 15 15 14 13 12 11 9 7 5 4 3 3 3 2 2 1 1 2 3
13 13 13 14 14 15 15 15 15 14 14 14 15 15 15 16 16 16 16 16 16 16 16 16 14 12 10 9 7 6 5 4 2 -0 -4 -7 -9 -9 -8 -6 -2 1 4 8 10 13 14 15 16 16 16 15 14 13 12 10 8 7 5 4 4 4 3 2 2 2 2 3 4
12 12 12 12 12 12 12 11 11 11 12 12 12 13 13 13 12 12 12 13 13 13 13 12 11 10 9 7 6 4 2 0 -2 -4 -5 -5 -4 -2 1 4 7 9 11 13 14 14 15 15 16 16 15 14 13 12 11 10 8 7 6 5 5 4 3 3 2 2 3 4 5
10 10 9 9 8 8 7 7 7 7 7 8 8 8 8 8 8 9 10 11 11 11 11 10 10 9 8 7 6 5 3 2 1 2 2 4 5 7 8 9 10 11 12 13 14 14 15 15 15 14 14 13 12 12 11 10 8 8 7 6 5 4 4 3 3 4 5 6 6
6 6 6 6 5 5 5 4 4 4 4 4 4 4 4 5 6 6 7 8 9 8 8 9 8 8 7 7 6 6 5 5 5 6 6 6 7 8 8 9 10 11 12 13 14 14 14 14 14 13 13 12 12 11 11 10 9 8 7 7 6 5 4 4 4 5 6 6 6
4 4 4 4 5 5 5 5 5 5 4 3 2 2 2 2 3 4 4 5 5 5 6 6 6 6 6 6 6 6 5 5 5 5 5 6 6 7 8 10 11 12 14 14 15 15 15 14 14 13 13 13 12 12 11 10 10 9 8 7 6 5 5 5 6 6 6 6 5
5 4 4 5 6 7 7 7 7 7 7 6 5 4 4 4 4 3 3 3 3 3 4 4 5 5 5 5 5 5 4 5 5 5 6 7 9 10 12 13 14 15 16 16 17 16 16 15 14 14 13 13 13 12 11 10 10 9 8 7 6 6 6 6 7 7 6 6 5
6 6 6 6 6 7 7 7 7 8 8 7 7 7 7 7 7 7 7 7 6 6 6 6 6 6 6 6 6 7 7 8 8 9 10 11 12 14 15 16 16 17 17 17 17 16 16 15 14 14 14 13 13 12 11 10 9 8 7 7 6 7 7 7 7 7 6 6 6
7 7 6 6 6 6 6 7 7 7 8 8 9 9 10 10 10 10 11 11 11 11 11 10 10 10 10 10 11 11 11 12 12 13 14 14 15 15 16 16 17 17 16 16 16 16 15 14 14 14 14 13 12 11 10 9 8 8 7 6 7 7 7 7 7 7 6 6 6
8 8 8 8 8 8 8 8 8 8 8 9 9 9 9 10 10 10 10 11 11 12 12 12 12 12 13 13 13 13 14 14 14 14 15 15 16 16 16 16 16 16 15 15 15 15 15 15 14 13 12 12 11 10 9 9 8 7 7 7 7 7 7 7 7 7 6 6 6
10 10 11 10 10 9 9 8 8 7 7 7 7 7 7 7 7 7 8 8 9 9 10 10 11 11 12 12 13 13 14 14 14 14 15 15 15 15 15 15 15 15 15 15 14 14 14 14 14 13 12 11 10 9 9 8 8 7 7 7 7 7 6 6 6 6 6 6 7
12 12 11 10 8 8 7 6 5 5 5 5 5 5 5 5 5 6 6 6 6 7 8 8 9 10 10 11 11 12 13 13 14 14 14 14 14 14 14 15 15 15 14 14 14 13 13 13 13 12 11 10 10 9 8 8 7 7 7 7 6 6 6 6 5 4 5 6 8
9 8 7 6 5 4 3 3 3 3 4 4 4 4 4 4 5 6 6 6 6 6 7 8 9 9 10 10 12 12 12 12 13 13 13 13 13 14 14 14 14 14 14 13 13 13 13 13 12 12 11 10 10 9 8 7 7 7 7 6 6 6 6 6 5 5 6 7 8
4 3 2 2 2 2 2 2 3 3 4 4 4 4 5 5 6 7 7 7 7 8 9 9 9 10 11 12 12 12 12 12 12 12 12 13 13 13 14 14 14 13 13 13 13 13 13 12 12 11 11 10 10 9 8 8 7 6 6 6 6 6 6 6 6 7 7 8 8
1 0 -0 -0 -0 0 1 2 3 4 4 4 4 5 6 7 8 8 9 9 10 10 10 10 10 11 12 12 11 12 12 12 12 12 12 12 13 13 13 13 13 13 12 12 12 12 12 12 11 11 10 10 9 9 8 8 7 7 6 6 6 6 7 6 7 8 8 8 7
-1 -2 -2 -1 -0 1 2 3 4 4 4 5 6 6 7 9 10 10 10 10 11 11 11 11 11 12 12 11 12 12 12 12 12 13 13 12 13 13 13 13 13 13 12 12 12 12 12 12 11 11 10 9 9 9 8 8 8 7 6 6 6 6 7 7 7 8 7 7 5
-2 -2 -1 0 2 3 4 4 5 5 6 6 7 8 9 10 10 10 10 11 11 11 11 11 12 12 12 13 13 13 13 12 13 13 13 13 13 13 13 14 14 13 12 12 12 12 12 11 11 10 9 8 8 8 8 8 7 6 6 6 6 6 7 7 7 7 6 5 4
-1 0 2 3 4 4 5 6 6 6 7 7 8 9 9 10 10 10 11 11 12 12 12 12 12 13 13 13 13 13 13 13 12 12 12 13 13 13 13 14 14 13 12 12 12 12 12 11 10 10 9 8 8 8 7 7 6 6 6 6 6 7 7 7 6 5 4 3 3
2 3 4 5 5 6 6 7 7 7 8 8 9 10 10 10 10 11 11 12 12 12 13 13 14 14 14 14 14 13 13 13 13 13 13 13 13 13 13 14 14 14 13 12 12 12 11 11 10 10 9 8 8 7 6 6 5 5 6 6 7 7 7 6 5 4 3 2 2
5 6 6 7 7 7 7 7 8 8 9 10 10 11 11 11 11 11 11 12 12 12 13 14 14 14 15 15 15 15 14 14 14 14 14 13 13 13 14 15 14 14 13 13 12 11 11 11 10 10 9 8 7 7 6 6 5 6 6 6 7 6 6 4 4 3 2 2 2
7 7 7 7 7 7 8 8 8 9 10 11 11 11 11 12 12 12 12 12 12 13 13 14 14 14 15 15 16 16 16 16 15 15 15 14 14 13 13 14 14 13 12 12 11 10 10 10 10 9 8 7 7 7 7 7 6 6 6 6 6 4 4 3 3 2 3 3 3
7 7 7 7 7 8 8 9 10 11 12 12 12 12 12 11 11 11 12 12 12 13 14 14 14 15 16 16 16 16 17 16 16 15 15 14 13 12 12 12 12 12 11 10 10 9 9 9 9 8 8 7 7 7 7 7 7 6 5 4 3 2 2 2 2 2 3 3 4
7 7 7 8 8 9 10 10 12 12 13 13 12 12 12 11 11 11 12 13 13 13 13 13 14 15 16 16 16 16 16 16 16 14 13 12 11 10 10 10 11 11 10 10 9 9 9 9 9 8 8 8 7 7 7 6 5 4 3 2 2 2 2 2 3 3 3 4 3
7 7 8 9 10 10 11 12 13 13 13 12 12 12 11 12 12 12 12 13 13 13 13 13 14 15 16 15 15 15 15 15 14 13 11 10 10 9 9 8 9 10 10 9 9 9 9 9 9 8 8 8 7 6 5 4 3 2 2 2 2 2 3 4 4 4 4 3 3
8 8 9 10 11 12 12 13 13 13 13 12 12 12 12 12 12 12 12 13 14 14 14 14 14 14 14 14 14 14 13 13 12 11 10 10 9 9 9 9 8 8 8 9 9 8 8 8 8 7 7 6 5 4 4 4 3 3 3 4 4 4 4 4 4 4 3 3 3
9 10 11 11 12 12 12 13 13 12 12 13 13 13 12 12 12 13 13 14 15 15 15 15 14 14 14 14 13 12 12 11 11 10 10 9 9 9 9 8 8 7 7 8 8 8 8 7 7 6 6 5 5 4 4 5 4 4 4 5 5 4 4 3 4 4 4 4 5
Height
3096 3097 3098 3098 3099 3100 3101 3101 3102 3103 3103 3104 3105 3106 3107 3107 3108 3108 3108 3108 3109 3109 3109 3110 3110 3110 3110 3110 3110 3110 3110 3110 3110 3110 3110 3111 3111 3111 3111 3110 3110 3110 3110 3110 3110 3110 3110 3110 3110 3110 3110 3109 3109 3109 3108 3108 3108 3107 3107 3106 3105 3105 3104 3103 3102 3101 3100 3099 3099
3094 3095 3096 3097 3098 3098 3099 3100 3100 3101 3102 3103 3103 3104 3105 3105 3106 3106 3107 3107 3107 3108 3108 3108 3108 3108 3108 3108 3108 3108 3108 3108 3108 3109 3109 3109 3109 3109 3109 3109 3108 3108 3108 3108 3108 3108 3108 3108 3108 3108 3108 3108 3108 3107 3107 3106 3106 3105 3104 3104 3103 3103 3102 3101 3100 3099 3098 3097 3096
3093 3093 3094 3095 3096 3097 3097 3098 3098 3099 3100 3101 3102 3103 3103 3104 3104 3104 3105 3105 3105 3106 3106 3106 3106 3106 3106 3106 3106 3107 3107 3107 3107 3107 3107 3107 3107 3107 3107 3107 3107 3107 3107 3107 3107 3107 3107 3106 3106 3106 3106 3106 3106 3105 3105 3104 3104 3103 3103 3102 3101 3100 3099 3098 3098 3097 3096 3095 3094
3091 3092 3093 3093 3094 3095 3096 3096 3097 3098 3098 3099 3100 3101 3101 3102 3103 3103 3103 3103 3103 3104 3104 3104 3104 3104 3104 3104 3104 3105 3105 3105 3105 3105 3105 3106 3106 3106 3105 3105 3105 3105 3105 3105 3105 3105 3105 3105 3104 3104 3104 3104 3104 3103 3103 3102 3102 3101 3100 3099 3099 3098 3097 3096 3095 3094 3093 3093 3092
3088 3090 3091 3092 3092 3093 3094 3095 3095 3096 3097 3097 3098 3098 3099 3100 3101 3101 3101 3102 3102 3102 3102 3103 3103 3103 3103 3103 3103 3103 3103 3103 3103 3103 3103 3104 3104 3104 3103 3103 3103 3103 3103 3103 3103 3103 3103 3103 3103 3103 3103 3102 3102 3101 3101 3100 3099 3099 3098 3097 3096 3095 3095 3094 3093 3092 3091 3090 3089
3087 3088 3089 3090 3090 3091 3092 3093 3093 3094 3095 3095 3096 3097 3097 3098 3099 3099 3100 3100 3100 3100 3100 3100 3101 3101 3101 3101 3101 3101 3101 3101 3102 3102 3102 3102 3102 3102 3102 3102 3102 3101 3101 3101 3101 3101 3101 3101 3101 3101 3101 3100 3100 3099 3098 3098 3097 3096 3096 3095 3094 3093 3092 3091 3090 3089 3088 3088 3087
3085 3086 3087 3088 3089 3089 3090 3091 3092 3093 3093 3093 3094 3095 3095 3096 3097 3098 3098 3098 3098 3098 3098 3098 3099 3099 3099 3099 3099 3099 3099 3100 3100 3100 3100 3100 3100 3100 3100 3100 3100 3100 3100 3100 3100 3100 3100 3099 3099 3099 3098 3098 3097 3096 3096 3095 3094 3093 3093 3092 3091 3090 3089 3088 3088 3087 3086 3085 3084
3083 3084 3085 3086 3087 3088 3089 3089 3090 3091 3091 3092 3092 3093 3094 3094 3095 3095 3096 3096 3096 3097 3097 3097 3097 3097 3098 3098 3098 3098 3098 3098 3098 3098 3098 3098 3098 3098 3098 3098 3098 3098 3098 3098 3098 3098 3098 3098 3097 3097 3096 3095 3094 3094 3093 3093 3092 3091 3090 3089 3088 3088 3087 3086 3085 3084 3083 3083 3082
3081 3082 3083 3084 3086 3087 3087 3088 3088 3089 3089 3090 3091 3091 3092 3092 3093 3093 3093 3094 3094 3094 3095 3095 3095 3095 3096 3096 3096 3096 3096 3096 3096 3096 3096 3097 3097 3097 3096 3096 3096 3096 3096 3096 3096 3096 3095 3095 3095 3094 3093 3093 3092 3091 3091 3090 3089 3088 3087 3087 3086 3085 3084 3083 3083 3082 3081 3080 3079
3079 3081 3082 3083 3084 3085 3086 3086 3087 3088 3088 3088 3089 3089 3090 3090 3091 3091 3091 3092 3092 3092 3093 3093 3093 3093 3094 3094 3094 3094 3094 3094 3094 3094 3094 3094 3094 3094 3094 3094 3094 3094 3094 3094 3093 3093 3093 3093 3092 3092 3091 3090 3089 3089 3088 3087 3086 3085 3085 3084 3083 3082 3082 3081 3080 3079 3078 3077 3076
3078 3079 3080 3082 3083 3083 3084 3085 3085 3086 3086 3086 3087 3087 3088 3088 3088 3089 3089 3089 3090 3090 3091 3091 3092 3092 3092 3092 3092 3092 3092 3092 3092 3093 3093 3093 3093 3093 3092 3092 3092 3092 3092 3092 3091 3091 3090 3090 3089 3089 3088 3088 3087 3086 3085 3084 3084 3083 3082 3081 3081 3080 3079 3078 3077 3076 3075 3074 3073
3077 3078 3079 3080 3081 3082 3082 3083 3083 3084 3084 3084 3085 3085 3085 3086 3086 3087 3087 3087 3088 3088 3089 3089 3089 3090 3090 3090 3090 3090 3090 3090 3090 3090 3090 3090 3090 3090 3090 3090 3090 3090 3089 3089 3089 3088 3088 3088 3087 3086 3085 3084 3084 3083 3082 3082 3081 3080 3079 3079 3078 3077 3076 3075 3074 3073 3073 3072 3071
3075 3077 3078 3078 3079 3080 3081 3081 3082 3082 3082 3083 3083 3083 3084 3084 3084 3085 3085 3085 3086 3086 3087 3087 3088 3088 3088 3088 3088 3088 3088 3088 3088 3088 3088 3088 3088 3088 3088 3088 3088 3088 3087 3087 3086 3086 3085 3085 3084 3083 3082 3082 3081 3080 3079 3079 3078 3078 3077 3076 3075 3074 3073 3072 3071 3070 3069 3069 3068
3074 3075 3076 3077 3078 3078 3079 3079 3080 3080 3081 3081 3081 3082 3082 3082 3083 3083 3083 3084 3084 3085 3085 3085 3086 3086 3086 3086 3087 3087 3087 3086 3086 3086 3086 3086 3086 3086 3086 3086 3086 3085 3085 3085 3084 3083 3083 3082 3081 3080 3079 3078 3078 3078 3077 3076 3076 3075 3074 3073 3072 3071 3070 3069 3068 3068 3067 3066 3065
3073 3074 3075 3075 3076 3077 3077 3078 3078 3078 3079 3079 3079 3080 3080 3081 3081 3081 3082 3082 3083 3083 3083 3083 3084 3084 3084 3084 3085 3085 3085 3085 3084 3084 3084 3084 3084 3084 3084 3084 3084 3083 3083 3082 3081 3080 3079 3078 3078 3077 3077 3076 3075 3075 3074 3073 3073 3072 3071 3070 3069 3068 3067 3066 3065 3064 3063 3063 3062
3072 3073 3073 3074 3075 3075 3076 3076 3077 3077 3077 3078 3078 3078 3078 3079 3079 3080 3080 3080 3081 3081 3082 3082 3082 3083 3083 3083 3083 3083 3083 3083 3083 3083 3083 3083 3083 3082 3082 3082 3081 3080 3080 3079 3078 3077 3077 3076 3075 3075 3074 3073 3073 3072 3071 3071 3070 3069 3068 3067 3066 3065 3064 3063 3062 3061 3060 3060 3059
3071 3072 3073 3073 3073 3074 3074 3075 3075 3076 3076 3076 3077 3077 3077 3077 3078 3078 3078 3079 3079 3079 3080 3080 3081 3081 3081 3081 3081 3081 3081 3081 3081 3081 3081 3080 3080 3080 3079 3078 3078 3077 3076 3075 3075 3074 3074 3073 3073 3072 3071 3071 3070 3069 3068 3068 3067 3066 3065 3064 3063 3063 3061 3060 3059 3058 3057 3057 3057
3070 3071 3072 3072 3073 3073 3073 3074 3074 3074 3075 3075 3075 3075 3076 3076 3076 3077 3077 3077 3078 3078 3078 3078 3079 3079 3079 3079 3079 3079 3079 3079 3079 3078 3078 3077 3077 3076 3075 3075 3074 3073 3073 3073 3072 3072 3071 3071 3070 3069 3068 3067 3067 3066 3065 3065 3064 3063 3063 3062 3061 3059 3058 3057 3056 3055 3055 3054 3054
3070 3070 3071 3071 3071 3072 3072 3073 3073 3073 3073 3074 3074 3074 3074 3075 3075 3075 3075 3076 3076 3076 3076 3076 3076 3076 3076 3076 3076 3076 3076 3076 3075 3075 3074 3074 3073 3073 3072 3072 3071 3071 3070 3070 3069 3069 3068 3067 3067 3066 3065 3064 3063 3063 3063 3062 3061 3060 3060 3058 3058 3056 3055 3054 3053 3053 3052 3052 3051
3069 3069 3070 3070 3070 3071 3071 3071 3072 3072 3072 3073 3073 3073 3073 3073 3073 3073 3074 3074 3074 3074 3074 3074 3074 3074 3073 3073 3073 3073 3073 3072 3072 3071 3071 3070 3070 3069 3069 3069 3068 3068 3068 3067 3066 3065 3065 3064 3063 3063 3062 3061 3061 3060 3060 3059 3058 3058 3057 3056 3054 3053 3052 3051 3050 3050 3049 3049 3048
3068 3068 3069 3069 3069 3069 3070 3070 3070 3071 3071 3071 3071 3072 3072 3072 3072 3072 3072 3072 3072 3072 3072 3072 3072 3071 3071 3071 3071 3070 3070 3069 3069 3068 3068 3068 3067 3067 3067 3066 3066 3065 3064 3063 3063 3062 3062 3061 3060 3060 3059 3058 3058 3057 3057 3056 3055 3054 3053 3052 3051 3050 3049 3048 3048 3047 3047 3045 3044
3068 3068 3068 3068 3068 3068 3069 3069 3069 3069 3070 3070 3070 3070 3070 3070 3070 3070 3070 3070 3070 3070 3070 3070 3070 3069 3069 3069 3068 3068 3068 3067 3067 3066 3066 3065 3065 3064 3063 3063 3063 3062 3061 3060 3060 3059 3058 3058 3057 3057 3056 3055 3055 3054 3053 3053 3052 3051 3050 3049 3048 3047 3046 3046 3045 3044 3043 3042 3041
3067 3067 3067 3067 3068 3068 3068 3068 3068 3068 3068 3068 3068 3068 3068 3068 3068 3068 3068 3068 3068 3068 3068 3068 3068 3067 3067 3066 3066 3065 3065 3064 3064 3063 3063 3062 3062 3061 3060 3060 3059 3058 3058 3057 3057 3056 3055 3055 3054 3053 3053 3053 3052 3051 3050 3050 3049 3048 3047 3046 3045 3044 3043 3043 3042 3041 3040 3038 3037
3066 3066 3066 3066 3067 3067 3067 3067 3067 3067 3067 3067 3067 3067 3067 3067 3067 3067 3067 3066 3066 3066 3066 3065 3065 3064 3064 3063 3063 3062 3062 3061 3061 3060 3059 3059 3058 3058 3057 3057 3056 3055 3054 3054 3053 3053 3052 3052 3051 3050 3050 3049 3049 3048 3047 3046 3045 3044 3043 3043 3042 3041 3040 3039 3038 3037 3036 3035 3034
3065 3065 3065 3065 3065 3066 3066 3066 3066 3066 3066 3066 3066 3065 3065 3065 3065 3065 3064 3064 3064 3063 3063 3063 3062 3062 3061 3061 3060 3059 3059 3058 3058 3057 3056 3056 3055 3055 3054 3053 3053 3052 3051 3051 3050 3049 3049 3048 3048 3048 3047 3046 3046 3045 3044 3043 3042 3041 3040 3039 3039 3038 3037 3036 3035 3034 3033 3031 3030
3064 3064 3064 3064 3064 3064 3064 3064 3064 3064 3064 3064 3064 3064 3063 3063 3063 3063 3062 3062 3062 3061 3061 3060 3060 3059 3058 3058 3057 3056 3056 3055 3054 3054 3053 3053 3052 3052 3051 3050 3050 3049 3048 3048 3047 3046 3046 3045 3045 3044 3044 3043 3043 3042 3041 3040 3039 3038 3038 3037 3036 3035 3034 3033 3032 3030 3029 3028 3027
3063 3063 3063 3063 3063 3063 3063 3063 3063 3063 3063 3063 3063 3062 3062 3061 3061 3061 3060 3059 3059 3058 3058 3058 3057 3056 3056 3055 3054 3053 3053 3052 3052 3051 3050 3050 3049 3048 3048 3047 3047 3046 3045 3044 3044 3043 3043 3043 3042 3041 3041 3040 3039 3039 3038 3037 3036 3035 3034 3033 3033 3032 3031 3029 3028 3027 3026 3025 3024
3062 3062 3062 3062 3062 3062 3062 3062 3062 3062 3061 3061 3061 3060 3060 3059 3059 3058 3058 3057 3057 3056 3055 3055 3054 3053 3053 3052 3051 3051 3050 3049 3049 3048 3048 3047 3046 3046 3045 3044 3044 3043 3042 3042 3041 3040 3040 3039 3039 3038 3038 3037 3037 3036 3035 3034 3033 3033 3031 3030 3030 3028 3028 3026 3025 3024 3023 3022 3021
3061 3061 3061 3061 3061 3061 3061 3061 3060 3060 3060 3059 3059 3058 3058 3057 3057 3056 3055 3055 3054 3053 3053 3052 3052 3051 3050 3049 3048 3048 3047 3047 3046 3045 3045 3044 3043 3043 3042 3042 3041 3040 3039 3038 3038 3038 3037 3037 3036 3036 3035 3034 3034 3033 3032 3031 3030 3029 3028 3028 3027 3026 3024 3023 3022 3021 3020 3019 3018
3060 3060 3060 3060 3059 3059 3059 3059 3059 3058 3058 3057 3057 3056 3056 3055 3054 3053 3053 3052 3052 3051 3050 3050 3049 3048 3048 3047 3046 3045 3044 3044 3043 3043 3042 3041 3041 3040 3039 3038 3038 3037 3036 3036 3035 3035 3034 3034 3033 3033 3032 3032 3031 3030 3029 3028 3027 3026 3025 3024 3023 3023 3021 3020 3019 3018 3017 3016 3014
3058 3058 3058 3058 3058 3058 3058 3057 3057 3056 3056 3055 3054 3054 3053 3053 3052 3051 3050 3050 3049 3048 3048 3047 3046 3046 3045 3044 3043 3043 3042 3041 3040 3040 3039 3038 3038 3037 3036 3036 3035 3034 3033 3033 3033 3032 3032 3031 3031 3030 3029 3029 3028 3027 3026 3025 3024 3023 3022 3021 3020 3019 3018 3017 3016 3015 3013 3012 3011
3057 3057 3057 3057 3056 3056 3055 3055 3055 3054 3053 3053 3052 3052 3051 3050 3049 3048 3048 3047 3047 3046 3045 3044 3043 3043 3042 3041 3041 3040 3039 3038 3038 3037 3036 3036 3035 3034 3034 3033 3033 3032 3031 3030 3030 3029 3029 3028 3028 3027 3027 3026 3025 3024 3023 3023 3021 3020 3019 3018 3017 3016 3015 3014 3013 3011 3010 3008 3006
3056 3055 3055 3055 3054 3054 3053 3053 3053 3052 3051 3050 3050 3049 3048 3048 3047 3046 3045 3045 3044 3043 3042 3042 3041 3040 3039 3038 3038 3037 3036 3036 3035 3034 3033 3033 3032 3032 3031 3031 3030 3029 3028 3028 3028 3027 3027 3026 3025 3025 3024 3023 3022 3021 3020 3019 3018 3017 3016 3015 3014 3013 3012 3011 3009 3008 3006 3004 3002
3054 3053 3053 3053 3052 3052 3051 3051 3050 3049 3049 3048 3047 3047 3046 3045 3044 3043 3043 3042 3041 3040 3040 3039 3038 3038 3037 3036 3035 3035 3034 3033 3032 3032 3031 3030 3030 3029 3029 3028 3028 3027 3026 3026 3025 3025 3024 3023 3023 3022 3021 3020 3019 3018 3017 3016 3015 3013 3013 3012 3011 3010 3009 3007 3006 3004 3002 3000 2998
3052 3052 3051 3051 3050 3050 3049 3048 3048 3047 3046 3046 3045 3044 3043 3042 3042 3041 3040 3039 3038 3038 3037 3036 3036 3035 3034 3033 3033 3032 3031 3031 3030 3029 3028 3028 3028 3027 3027 3026 3025 3025 3024 3023 3023 3023 3022 3021 3021 3020 3019 3018 3016 3015 3014 3013 3011 3010 3009 3008 3007 3006 3005 3003 3001 2999 2998 2996 2993
3050 3050 3049 3049 3048 3048 3047 3046 3045 3045 3044 3043 3042 3041 3040 3040 3039 3038 3038 3037 3036 3035 3034 3034 3033 3033 3032 3031 3030 3030 3029 3028 3028 3027 3026 3026 3025 3025 3024 3024 3023 3023 3022 3022 3021 3020 3020 3019 3018 3017 3016 3015 3014 3013 3011 3010 3008 3007 3006 3005 3003 3002 3001 2999 2997 2995 2993 2991 2989
3048 3048 3047 3047 3046 3045 3044 3044 3043 3042 3041 3041 3040 3039 3038 3037 3036 3036 3035 3034 3033 3033 3032 3031 3031 3030 3029 3028 3028 3027 3027 3026 3025 3025 3024 3024 3023 3023 3022 3022 3021 3021 3020 3019 3019 3018 3018 3017 3016 3015 3013 3012 3011 3010 3008 3007 3006 3004 3003 3002 3000 2998 2997 2995 2993 2991 2989 2988 2986
3046 3046 3045 3044 3043 3043 3042 3041 3040 3040 3039 3038 3037 3036 3035 3034 3034 3033 3032 3032 3031 3030 3029 3029 3028 3028 3027 3026 3026 3025 3024 3024 3023 3023 3022 3022 3021 3021 3020 3020 3019 3018 3018 3017 3016 3016 3015 3014 3013 3012 3011 3009 3008 3007 3006 3004 3003 3001 3000 2998 2997 2995 2993 2992 2990 2988 2986 2984 2982
3044 3043 3043 3042 3041 3040 3039 3039 3038 3037 3036 3035 3034 3033 3033 3032 3031 3031 3030 3029 3028 3028 3027 3026 3026 3025 3024 3024 3023 3023 3022 3021 3021 3020 3020 3019 3019 3018 3018 3018 3017 3016 3015 3015 3014 3013 3013 3012 3011 3009 3008 3007 3005 3004 3003 3001 2999 2998 2996 2995 2993 2991 2990 2988 2986 2984 2982 2980 2979
3042 3041 3040 3039 3038 3038 3037 3036 3035 3034 3033 3033 3032 3031 3030 3029 3029 3028 3028 3027 3026 3025 3024 3024 3023 3023 3022 3021 3021 3020 3020 3019 3019 3018 3018 3017 3017 3016 3016 3015 3014 3014 3013 3012 3011 3011 3010 3009 3008 3007 3005 3004 3003 3001 2999 2997 2996 2994 2993 2991 2989 2988 2986 2984 2982 2980 2978 2976 2974
3039 3038 3038 3037 3036 3035 3034 3034 3033 3032 3031 3030 3029 3028 3028 3027 3026 3026 3025 3024 3023 3023 3022 3022 3021 3020 3020 3019 3018 3018 3018 3017 3017 3016 3015 3015 3014 3014 3013 3013 3012 3011 3011 3010 3009 3008 3007 3006 3005 3003 3002 3001 2999 2997 2996 2994 2992 2990 2988 2987 2985 2983 2981 2979 2978 2976 2974 2972 2970